Location: Edoum�
(0.9447°N, 10.6482°E)
Time: 00:29:44
(UTC+00:00)

CZ-2C R/B - Pass Details

Date: 07 June 2020
Orbit: 668 x 784 km, 98.2° (Epoch: 13 July)

Event Time Altitude Azimuth Distance (km) Brightness Sun altitude
Rises 02:38:24 0° 22° (NNE) 3,240 6.4 -35.4°
Reaches altitude 10° 02:40:47 10° 27° (NNE) 2,304 5.5 -34.9°
Enters shadow 02:44:13 37° 55° (NE) 1,163 3.8 -34.2°
